Miscellaneous Local Product
Issued by NWS North Platte, NE

Home | Current Version | Previous Version | Graphics & Text | Print | Product List | Glossary On
Versions: 1 2 3 4 5 6 7 8 9 10 11 12 13 14 15 16 17 18 19 20 21 22 23 24 25 26 27 28 29 30 31 32 33 34 35 36 37 38 39 40 41 42 43 44 45 46 47 48 49 50
413
AXUS43 KLBF 011010
MISLBF


WESTERN AND NORTH CENTRAL NEBRASKA HOURLY WEATHER ROUNDUP
NATIONAL WEATHER SERVICE NORTH PLATTE NE
500 AM CDT SAT OCT 01 2016

NOTE: "FAIR" INDICATES FEW OR NO CLOUDS BELOW 12,000 FEET WITH NO
SIGNIFICANT WEATHER AND/OR OBSTRUCTIONS TO VISIBILITY.

NOTE: STATIONS NOT REPORTING VARIABLES SUCH AS SKY/WEATHER OR
PRESSURE ARE PROVIDED BY RAWS AND APRS NETWORKS AND ARE NOT UNDER
NATIONAL WEATHER SERVICE QUALITY CONTROL.

...OBSERVATIONS IN AND NEAR THE EASTERN PANHANDLE OF NEBRASKA...

CITY           SKY/WX    TMP DP  RH WIND       PRES   REMARKS
PINE RIDGE     CLEAR     55  47  74 CALM      30.05S
CHADRON        CLEAR     54  45  71 SW5       30.04S
ALLIANCE       CLOUDY    48  45  89 SE9       30.08F
SIDNEY         CLEAR     48  43  82 S7        30.11F
CRESCENT LAKE    N/A     48  45  88 SE3         N/A
$$

...OBSERVATIONS IN NORTHERN NEBRASKA AND FAR SOUTHERN SOUTH DAKOTA...

CITY           SKY/WX    TMP DP  RH WIND       PRES   REMARKS
WINNER         FAIR      58  45  62 S16       30.08F
VALENTINE      PTCLDY    50  43  77 E3        30.10F
THEDFORD       CLOUDY    47  44  90 CALM      30.13S
AINSWORTH      CLEAR     48  44  86 S5        30.12F
O`NEILL        PTCLDY    48  44  85 SE5       30.14S
ORD            PTCLDY    45  42  89 CALM      30.13F
BROKEN BOW     CLOUDY    45  42  89 CALM      30.13F
VALENTINE NWR    N/A     49  45  85 S6          N/A
BUTTE            N/A     50  43  77 SE5         N/A
HALSEY           N/A     51  45  79 SE3         N/A
EWING            N/A     46  42  86 CALM        N/A
$$

...OBSERVATIONS IN SOUTHWEST NEBRASKA AND FAR NORTHEAST COLORADO...

CITY           SKY/WX    TMP DP  RH WIND       PRES   REMARKS
WRAY           FAIR      50  43  76 CALM      30.12F
HOLYOKE        FAIR      46  41  81 CALM      30.12S
IMPERIAL       CLOUDY    53  45  74 SE9       30.12F
OGALLALA       CLOUDY    52  46  77 CALM      30.11F
NORTH PLATTE   PTCLDY    50  45  83 E8        30.12F
MCCOOK         CLEAR     50  44  80 NE3       30.13S
LEXINGTON      CLOUDY    49  45  87 CALM      30.14S
STAPLETON        N/A     54  46  73 CALM        N/A
GOTHENBURG       N/A     50  43  75 CALM        N/A
CALLAWAY         N/A     45  43  92 S6          N/A
$$

...OBSERVATIONS IN CENTRAL LINCOLN COUNTY AREA...

CITY           SKY/WX    TMP DP  RH WIND       PRES   REMARKS
N.P. AIRPORT   PTCLDY    50  45  83 E8        30.12F
N.P. DOWNTOWN    N/A     54  46  73 CALM        N/A
N.P. SOUTHEAST   N/A     53  46  76 CALM        N/A
N.P. HILLCREST   N/A     53  45  74 SE5         N/A
$$

...SOME OBSERVATIONS FROM AROUND THE REGION...

CITY           SKY/WX    TMP DP  RH WIND       PRES   REMARKS
DENVER         CLEAR     53  44  71 W9        30.15F
LARAMIE        CLEAR     42  38  85 S8        30.25F
CHEYENNE       CLEAR     49  41  74 W9        30.18S
SCOTTSBLUFF    CLEAR     49  45  86 E7        30.08F
RAPID CITY     CLEAR     49  47  93 CALM      30.01F
BISMARCK       PTCLDY    58  45  62 S12       30.03F
PIERRE         CLOUDY    60  44  55 SE16      30.03F
SIOUX FALLS    PTCLDY    47  46  97 CALM      30.16F
OMAHA          CLOUDY    58  53  84 N3        30.15R
GRAND ISLAND   MOCLDY    51  46  83 S5        30.15S
KANSAS CITY    CLOUDY    55  52  89 N3        30.12S
WICHITA        PTCLDY    55  51  86 NE3       30.11F
OKLAHOMA CITY  CLOUDY    58  54  86 CALM      30.11R
DALLAS         MOCLDY    64  55  72 CALM      30.06F
AMARILLO       CLEAR     55  49  80 SE7       30.12F
DODGE CITY     PTCLDY    57  47  69 SE5       30.11S
HAYS           CLOUDY    50  37  62 E5        30.12F
GOODLAND       CLEAR     49  43  80 S3        30.11F
$$




USA.gov is the U.S. government's official web portal to all federal, state and local government web resources and services.